Volver al catálogo

CZ-6A DEB

ActivoPO
NORAD 61139·DEBRIS·🇨🇳 China

Lanzado Aug 6, 2024 desde Taiyuan Satellite Launch Center

Loading…

Próximos Pases (próximas 24 horas)

TLE

ActualizadoSource: Space-Track

Época: Sep 14, 2026, 10:42 UTC

1 61139U 24140QH  26257.44650121  .00000472  00000-0  27132-3 0  9997
2 61139  88.9458 262.8966 0121201 328.1436  31.2453 14.04208042105668

Sigue CZ-6A DEB en tiempo real con AllMySat

Download on the App Store